Weather History for KWJF - July, 2014

Change the Weather History Date:

Monday, July 7, 2014

  Actual Average Record
Temperature  
Mean Temperature 85 °F 82 °F  
Max Temperature 102 °F 97 °F 110 °F (1989)
Min Temperature 68 °F 66 °F 51 °F (1961)
Degree Days  
Heating Degree Days 0    
Month to date heating degree days 0  
Since 1 June heating degree days 0  
Since 1 July heating degree days 0  
Cooling Degree Days 20    
Month to date cooling degree days 142  
Year to date cooling degree days 742  
Since 1 June cooling degree days 542  
Growing Degree Days 35 (Base 50)    
Moisture  
Dew Point 38 °F    
Average Humidity 22    
Maximum Humidity 34    
Minimum Humidity 10    
Precipitation  
Precipitation 0.00 in 0.01 in 0.00 in (2015)
Month to date precipitation 0.00 0.02  
Year to date precipitation 2.32 4.93  
Since 1 July precipitation 0.00 0.02  
Snow  
Snow 0.00 in - 0.00 in ()
Month to date snowfall 0.0  
Since 1 June snowfall 0.0  
Since 1 July snowfall 0.0  
Snow Depth 0.00 in    
Sea Level Pressure  
Sea Level Pressure 29.86 in    
Wind  
Wind Speed 10 mph (WSW)    
Max Wind Speed 26 mph    
Max Gust Speed 35 mph    
Visibility 10 miles    
Events      
T = Trace of Precipitation, MM = Missing Value Source: NWS Daily Summary

Daily Weather History Graph

Daily Weather History Graph

Search for Another Location

Airport or City:

Trip Planner

Search our weather history database for the weather conditions in past years. The results will help you decide how hot, cold, wet, or windy it might be!

Date:

Astronomy

Jul. 07, 2014 Rise Set
Actual Time 5:46 AM PDT 8:09 PM PDT
Civil Twilight 5:16 AM PDT 8:38 PM PDT
Nautical Twilight 4:41 AM PDT 9:14 PM PDT
Astronomical Twilight 4:01 AM PDT 9:53 PM PDT
Moon 3:23 PM PDT (7/7) 1:35 AM PDT (7/7)
Length of Visible Light 15h 21m
Length of Day
14h 22m
Waxing Gibbous, 73% of the Moon is Illuminated
Jul 7
Waxing Gibbous
Jul 12
Full
Jul 18
Last Quarter
Jul 26
New
Aug 3
First Quarter

Hourly Weather History & Observations

Time (PDT) Temp. Dew Point Humidity Pressure Visibility Wind Dir Wind Speed Gust Speed Precip Events Conditions
12:56 AM 81.0 °F 28.0 °F 14% 29.88 in 10.0 mi West 12.7 mph - N/A   Clear
1:56 AM 79.0 °F 26.1 °F 14% 29.87 in 10.0 mi West 11.5 mph - N/A   Clear
2:56 AM 77.0 °F 28.0 °F 17% 29.88 in 10.0 mi WNW 4.6 mph - N/A   Clear
3:56 AM 78.1 °F 28.9 °F 17% 29.87 in 10.0 mi Calm Calm - N/A   Clear
4:56 AM 73.0 °F 30.0 °F 20% 29.88 in 10.0 mi South 3.5 mph - N/A   Clear
5:56 AM 68.0 °F 30.0 °F 24% 29.89 in 10.0 mi Calm Calm - N/A   Clear
6:56 AM 75.9 °F 37.9 °F 25% 29.89 in 10.0 mi West 5.8 mph - N/A   Clear
7:56 AM 82.9 °F 39.0 °F 21% 29.90 in 10.0 mi Calm Calm - N/A   Clear
8:56 AM 90.0 °F 35.1 °F 14% 29.89 in 10.0 mi Variable 4.6 mph - N/A   Clear
9:50 AM 91.4 °F 35.6 °F 14% 29.96 in 30.0 mi WSW 4.6 mph - N/A   Clear
9:56 AM 91.9 °F 35.1 °F 13% 29.88 in 10.0 mi SW 3.5 mph - N/A   Clear
10:50 AM 96.8 °F 35.6 °F 12% 29.96 in 30.0 mi SW 8.1 mph - N/A   Clear
10:56 AM 95.0 °F 37.0 °F 13% 29.88 in 10.0 mi SSW 4.6 mph - N/A   Clear
11:56 AM 98.1 °F 33.1 °F 10% 29.86 in 10.0 mi West 9.2 mph - N/A   Clear
12:56 PM 99.0 °F 36.0 °F 11% 29.84 in 10.0 mi SSW 9.2 mph 17.3 mph N/A   Clear
1:56 PM 102.0 °F 37.0 °F 11% 29.82 in 10.0 mi West 16.1 mph - N/A   Clear
2:56 PM 100.9 °F 39.0 °F 12% 29.81 in 10.0 mi WSW 18.4 mph 27.6 mph N/A   Clear
3:56 PM 100.0 °F 41.0 °F 13% 29.80 in 10.0 mi West 20.7 mph 25.3 mph N/A   Clear
4:56 PM 99.0 °F 44.1 °F 15% 29.80 in 10.0 mi WSW 24.2 mph 29.9 mph N/A   Clear
5:56 PM 99.0 °F 42.1 °F 14% 29.80 in 10.0 mi WSW 23.0 mph 28.8 mph N/A   Clear
6:56 PM 91.9 °F 48.0 °F 22% 29.81 in 10.0 mi WSW 18.4 mph - N/A   Clear
7:56 PM 87.1 °F 48.9 °F 27% 29.83 in 10.0 mi WSW 16.1 mph - N/A   Clear
8:56 PM 82.9 °F 51.1 °F 33% 29.83 in 10.0 mi SW 11.5 mph - N/A   Clear
10:56 PM 81.0 °F 45.0 °F 28% 29.85 in 10.0 mi SW 11.5 mph - N/A   Clear
11:56 PM 80.1 °F 48.0 °F 32% 29.86 in 10.0 mi WSW 12.7 mph - N/A   Clear